Time,TemperatureF,DewpointF,PressureIn,WindDirection,WindDirectionDegrees,WindSpeedMPH,WindSpeedGustMPH,Humidity,HourlyPrecipIn,Conditions,Clouds,dailyrainin,SoftwareType,DateUTC
2013-06-30 00:02:00,68.0,65.0,29.67,NE,48,0.0,1.0,91,0.00,,,0.33,,2013-06-30 04:02:00,
2013-06-30 00:12:00,68.0,65.0,29.67,NE,48,0.0,1.0,91,0.00,,,0.33,,2013-06-30 04:12:00,
2013-06-30 00:22:00,67.0,65.0,29.66,ESE,123,0.0,0.0,92,0.00,,,0.33,,2013-06-30 04:22:00,
2013-06-30 00:33:00,67.0,65.0,29.67,ESE,123,0.0,0.0,92,0.00,,,0.32,,2013-06-30 04:33:00,
2013-06-30 00:43:00,67.0,65.0,29.67,ESE,123,0.0,0.0,92,0.00,,,0.32,,2013-06-30 04:43:00,
2013-06-30 00:53:00,67.0,65.0,29.67,ESE,123,0.0,0.0,92,0.00,,,0.32,,2013-06-30 04:53:00,
2013-06-30 01:02:00,67.0,65.0,29.67,ESE,123,0.0,0.0,92,0.00,,,0.32,,2013-06-30 05:02:00,
2013-06-30 01:12:00,67.0,65.0,29.67,ESE,123,0.0,0.0,92,0.00,,,0.32,,2013-06-30 05:12:00,
2013-06-30 01:22:00,67.0,65.0,29.67,ESE,123,0.0,0.0,92,0.00,,,0.32,,2013-06-30 05:22:00,
2013-06-30 01:34:00,67.0,65.0,29.67,ESE,123,0.0,0.0,92,0.00,,,0.32,,2013-06-30 05:34:00,
2013-06-30 01:43:00,67.0,65.0,29.67,ESE,123,0.0,0.0,92,0.00,,,0.32,,2013-06-30 05:43:00,
2013-06-30 01:53:00,67.0,66.0,29.68,ESE,123,0.0,0.0,98,0.00,,,0.32,,2013-06-30 05:53:00,
2013-06-30 02:02:00,67.0,66.0,29.68,ESE,123,0.0,0.0,98,0.00,,,0.32,,2013-06-30 06:02:00,
2013-06-30 02:12:00,67.0,66.0,29.68,ESE,123,0.0,0.0,98,0.00,,,0.32,,2013-06-30 06:12:00,
2013-06-30 02:23:00,67.0,66.0,29.69,ESE,123,0.0,0.0,98,0.00,,,0.32,,2013-06-30 06:23:00,
2013-06-30 02:34:00,68.0,68.0,29.68,ESE,123,0.0,0.0,100,0.00,,,0.32,,2013-06-30 06:34:00,
2013-06-30 02:43:00,68.0,68.0,29.68,ESE,123,0.0,0.0,100,0.00,,,0.32,,2013-06-30 06:43:00,
2013-06-30 02:53:00,68.0,68.0,29.67,ESE,123,0.0,0.0,100,0.00,,,0.32,,2013-06-30 06:53:00,
2013-06-30 03:02:00,68.0,68.0,29.67,ESE,123,0.0,0.0,100,0.00,,,0.32,,2013-06-30 07:02:00,
2013-06-30 03:12:00,68.0,68.0,29.67,ESE,123,0.0,0.0,100,0.00,,,0.32,,2013-06-30 07:12:00,
2013-06-30 03:22:00,67.0,67.0,29.67,ESE,123,0.0,0.0,100,0.00,,,0.32,,2013-06-30 07:22:00,
2013-06-30 03:33:00,67.0,67.0,29.67,ESE,123,0.0,0.0,99,0.00,,,0.32,,2013-06-30 07:33:00,
2013-06-30 03:44:00,67.0,67.0,29.67,ESE,123,0.0,0.0,99,0.00,,,0.32,,2013-06-30 07:44:00,
2013-06-30 03:53:00,67.0,67.0,29.67,ESE,123,0.0,0.0,99,0.00,,,0.32,,2013-06-30 07:53:00,
2013-06-30 04:02:00,67.0,67.0,29.66,ESE,123,0.0,0.0,99,0.00,,,0.32,,2013-06-30 08:02:00,
2013-06-30 04:12:00,67.0,67.0,29.66,ESE,123,0.0,0.0,99,0.00,,,0.32,,2013-06-30 08:12:00,
2013-06-30 04:22:00,67.0,67.0,29.66,ESE,123,0.0,0.0,99,0.00,,,0.32,,2013-06-30 08:22:00,
2013-06-30 04:33:00,67.0,67.0,29.66,ESE,123,0.0,0.0,99,0.00,,,0.32,,2013-06-30 08:33:00,
2013-06-30 04:42:00,67.0,67.0,29.66,ESE,123,0.0,0.0,99,0.00,,,0.32,,2013-06-30 08:42:00,
2013-06-30 04:53:00,67.0,67.0,29.67,ESE,123,0.0,0.0,99,0.00,,,0.32,,2013-06-30 08:53:00,
2013-06-30 05:01:00,67.0,67.0,29.67,ESE,123,0.0,0.0,99,0.00,,,0.32,,2013-06-30 09:01:00,
2013-06-30 05:12:00,67.0,67.0,29.67,ESE,123,0.0,0.0,99,0.00,,,0.32,,2013-06-30 09:12:00,
2013-06-30 05:23:00,67.0,67.0,29.67,ESE,123,0.0,0.0,99,0.00,,,0.32,,2013-06-30 09:23:00,
2013-06-30 05:34:00,67.0,67.0,29.67,ESE,123,0.0,0.0,99,0.00,,,0.32,,2013-06-30 09:34:00,
2013-06-30 05:43:00,67.0,67.0,29.67,ESE,123,0.0,0.0,99,0.00,,,0.32,,2013-06-30 09:43:00,
2013-06-30 05:53:00,67.0,67.0,29.68,ESE,123,0.0,0.0,100,0.00,,,0.32,,2013-06-30 09:53:00,
2013-06-30 06:02:00,67.0,67.0,29.68,ESE,123,0.0,0.0,100,0.00,,,0.32,,2013-06-30 10:02:00,
2013-06-30 06:11:00,67.0,67.0,29.68,ESE,123,0.0,0.0,100,0.00,,,0.32,,2013-06-30 10:11:00,
2013-06-30 06:22:00,67.0,67.0,29.69,ESE,123,0.0,0.0,100,0.00,,,0.32,,2013-06-30 10:22:00,
2013-06-30 06:33:00,67.0,67.0,29.69,ESE,123,0.0,0.0,100,0.00,,,0.32,,2013-06-30 10:33:00,
2013-06-30 06:43:00,67.0,67.0,29.69,ESE,123,0.0,0.0,100,0.00,,,0.32,,2013-06-30 10:43:00,
2013-06-30 06:53:00,67.0,67.0,29.70,ESE,123,0.0,0.0,100,0.00,,,0.32,,2013-06-30 10:53:00,
2013-06-30 07:02:00,67.0,67.0,29.70,ESE,123,0.0,0.0,100,0.00,,,0.32,,2013-06-30 11:02:00,
2013-06-30 07:11:00,67.0,67.0,29.70,ESE,123,0.0,0.0,100,0.00,,,0.32,,2013-06-30 11:11:00,
2013-06-30 07:22:00,67.0,67.0,29.71,ESE,123,0.0,0.0,100,0.00,,,0.32,,2013-06-30 11:22:00,
2013-06-30 07:33:00,67.0,67.0,29.71,ESE,123,0.0,0.0,100,0.00,,,0.32,,2013-06-30 11:33:00,
2013-06-30 07:43:00,67.0,67.0,29.71,ESE,123,0.0,0.0,100,0.00,,,0.32,,2013-06-30 11:43:00,
2013-06-30 07:53:00,67.0,67.0,29.71,ESE,123,0.0,0.0,100,0.00,,,0.32,,2013-06-30 11:53:00,
2013-06-30 08:02:00,67.0,67.0,29.71,ESE,123,0.0,0.0,100,0.00,,,0.32,,2013-06-30 12:02:00,
2013-06-30 08:34:00,68.0,67.0,29.72,NE,52,0.0,3.0,98,0.00,,,0.32,,2013-06-30 12:34:00,
2013-06-30 08:52:00,68.0,67.0,29.72,NE,52,0.0,3.0,98,0.00,,,0.32,,2013-06-30 12:52:00,
2013-06-30 09:02:00,68.0,67.0,29.72,NE,52,0.0,3.0,98,0.00,,,0.32,,2013-06-30 13:02:00,
2013-06-30 09:12:00,68.0,67.0,29.72,NE,52,0.0,3.0,98,0.00,,,0.32,,2013-06-30 13:12:00,
2013-06-30 09:22:00,68.0,67.0,29.72,NE,52,0.0,3.0,98,0.00,,,0.32,,2013-06-30 13:22:00,
2013-06-30 10:02:00,72.0,64.0,29.75,NE,51,0.0,3.0,77,0.00,,,0.32,,2013-06-30 14:02:00,
2013-06-30 10:11:00,72.0,64.0,29.75,NE,51,0.0,3.0,77,0.00,,,0.32,,2013-06-30 14:11:00,
2013-06-30 10:22:00,72.0,64.0,29.75,NE,51,0.0,3.0,77,0.00,,,0.32,,2013-06-30 14:22:00,
2013-06-30 10:33:00,73.0,65.0,29.75,NNE,32,0.0,1.0,75,0.00,,,0.32,,2013-06-30 14:33:00,
2013-06-30 10:44:00,73.0,65.0,29.75,NNE,32,0.0,1.0,75,0.00,,,0.32,,2013-06-30 14:44:00,
2013-06-30 10:52:00,72.0,64.0,29.75,NNE,21,0.0,0.0,77,0.00,,,0.32,,2013-06-30 14:52:00,
2013-06-30 11:02:00,74.0,65.0,29.75,NE,34,0.0,3.0,73,0.00,,,0.32,,2013-06-30 15:02:00,
2013-06-30 11:12:00,74.0,65.0,29.75,NE,34,0.0,3.0,73,0.00,,,0.32,,2013-06-30 15:12:00,
2013-06-30 11:23:00,74.0,64.0,29.75,NE,47,0.0,1.0,71,0.00,,,0.32,,2013-06-30 15:23:00,
2013-06-30 11:34:00,75.0,65.0,29.75,NE,41,0.0,1.0,71,0.00,,,0.32,,2013-06-30 15:34:00,
2013-06-30 11:44:00,75.0,65.0,29.75,NE,41,0.0,1.0,71,0.00,,,0.32,,2013-06-30 15:44:00,
2013-06-30 11:53:00,75.0,65.0,29.75,NE,38,0.0,0.0,70,0.00,,,0.33,,2013-06-30 15:53:00,
2013-06-30 12:01:00,74.0,64.0,29.75,NNE,31,0.0,1.0,70,0.00,,,0.33,,2013-06-30 16:01:00,
2013-06-30 12:11:00,74.0,64.0,29.75,NNE,31,0.0,1.0,70,0.00,,,0.33,,2013-06-30 16:11:00,
2013-06-30 12:21:00,74.0,64.0,29.76,NNE,14,0.0,2.0,71,0.00,,,0.32,,2013-06-30 16:21:00,
2013-06-30 12:34:00,75.0,64.0,29.76,NNE,21,0.0,2.0,69,0.00,,,0.32,,2013-06-30 16:34:00,
2013-06-30 12:44:00,75.0,64.0,29.76,NNE,21,0.0,2.0,69,0.00,,,0.32,,2013-06-30 16:44:00,
2013-06-30 12:53:00,75.0,64.0,29.76,NNE,21,0.0,2.0,69,0.00,,,0.32,,2013-06-30 16:53:00,
2013-06-30 13:02:00,75.0,63.0,29.75,NNE,20,1.0,2.0,66,0.00,,,0.32,,2013-06-30 17:02:00,
2013-06-30 13:11:00,75.0,63.0,29.75,NNE,20,1.0,2.0,66,0.00,,,0.32,,2013-06-30 17:11:00,
2013-06-30 13:23:00,75.0,63.0,29.75,NNE,20,1.0,2.0,66,0.00,,,0.32,,2013-06-30 17:23:00,
2013-06-30 13:34:00,78.0,63.0,29.76,ENE,58,0.0,4.0,61,0.00,,,0.31,,2013-06-30 17:34:00,
2013-06-30 13:43:00,78.0,63.0,29.76,ENE,58,0.0,4.0,61,0.00,,,0.31,,2013-06-30 17:43:00,
2013-06-30 13:53:00,79.0,62.0,29.76,SE,136,5.0,6.0,56,0.00,,,0.31,,2013-06-30 17:53:00,
2013-06-30 14:02:00,79.0,62.0,29.76,SE,136,5.0,6.0,56,0.00,,,0.31,,2013-06-30 18:02:00,
2013-06-30 14:12:00,79.0,62.0,29.76,SE,136,5.0,6.0,56,0.00,,,0.31,,2013-06-30 18:12:00,
2013-06-30 14:22:00,80.0,62.0,29.75,SSW,208,1.0,6.0,54,0.00,,,0.25,,2013-06-30 18:22:00,
2013-06-30 14:34:00,80.0,62.0,29.75,SSW,208,1.0,6.0,54,0.00,,,0.25,,2013-06-30 18:34:00,
2013-06-30 14:43:00,80.0,62.0,29.75,SSW,208,1.0,6.0,54,0.00,,,0.25,,2013-06-30 18:43:00,
2013-06-30 14:53:00,80.0,62.0,29.75,SSW,208,1.0,6.0,54,0.00,,,0.25,,2013-06-30 18:53:00,
2013-06-30 15:01:00,80.0,61.0,29.75,ENE,61,0.0,5.0,52,0.00,,,0.00,,2013-06-30 19:01:00,
2013-06-30 15:11:00,80.0,61.0,29.75,ENE,61,0.0,5.0,52,0.00,,,0.00,,2013-06-30 19:11:00,
2013-06-30 15:22:00,76.0,63.0,29.76,North,11,0.0,3.0,65,0.00,,,0.00,,2013-06-30 19:22:00,
2013-06-30 15:33:00,74.0,63.0,29.76,NNE,20,0.0,1.0,69,0.00,,,0.00,,2013-06-30 19:33:00,
2013-06-30 15:34:00,74.0,64.0,29.77,North,10,1.0,2.0,72,0.00,,,0.00,,2013-06-30 19:34:00,
2013-06-30 15:43:00,74.0,63.0,29.76,NNE,20,0.0,1.0,69,0.00,,,0.00,,2013-06-30 19:43:00,
2013-06-30 15:53:00,74.0,64.0,29.77,North,10,1.0,2.0,72,0.00,,,0.00,,2013-06-30 19:53:00,
2013-06-30 16:02:00,74.0,64.0,29.77,North,10,1.0,2.0,72,0.00,,,0.00,,2013-06-30 20:02:00,
2013-06-30 16:12:00,74.0,64.0,29.77,North,10,1.0,2.0,72,0.00,,,0.00,,2013-06-30 20:12:00,
2013-06-30 16:22:00,74.0,64.0,29.77,North,10,1.0,2.0,72,0.00,,,0.00,,2013-06-30 20:22:00,
2013-06-30 16:52:00,74.0,63.0,29.78,NNE,20,0.0,7.0,68,0.00,,,0.00,,2013-06-30 20:52:00,
2013-06-30 17:01:00,75.0,62.0,29.78,East,88,3.0,7.0,64,0.00,,,0.00,,2013-06-30 21:01:00,
2013-06-30 17:11:00,75.0,62.0,29.78,East,88,3.0,7.0,64,0.00,,,0.00,,2013-06-30 21:11:00,
2013-06-30 17:22:00,75.0,62.0,29.78,East,88,3.0,7.0,64,0.00,,,0.00,,2013-06-30 21:22:00,
2013-06-30 17:34:00,76.0,62.0,29.78,ESE,107,0.0,7.0,62,0.00,,,0.00,,2013-06-30 21:34:00,
2013-06-30 17:43:00,76.0,62.0,29.78,ESE,107,0.0,7.0,62,0.00,,,0.00,,2013-06-30 21:43:00,
2013-06-30 17:53:00,76.0,62.0,29.77,ESE,116,0.0,5.0,63,0.00,,,0.00,,2013-06-30 21:53:00,
2013-06-30 18:01:00,76.0,62.0,29.77,ESE,116,0.0,5.0,63,0.00,,,0.00,,2013-06-30 22:01:00,
2013-06-30 18:11:00,76.0,62.0,29.77,ESE,116,0.0,5.0,63,0.00,,,0.00,,2013-06-30 22:11:00,
2013-06-30 18:22:00,76.0,64.0,29.78,NE,44,0.0,6.0,67,0.00,,,0.00,,2013-06-30 22:22:00,
2013-06-30 18:34:00,76.0,65.0,29.79,NE,51,0.0,8.0,68,0.00,,,0.00,,2013-06-30 22:34:00,
2013-06-30 18:43:00,76.0,65.0,29.79,NE,51,0.0,8.0,68,0.00,,,0.00,,2013-06-30 22:43:00,
2013-06-30 18:53:00,76.0,65.0,29.79,NE,51,0.0,8.0,68,0.00,,,0.00,,2013-06-30 22:53:00,
2013-06-30 19:02:00,76.0,65.0,29.79,NE,51,0.0,8.0,68,0.00,,,0.00,,2013-06-30 23:02:00,
2013-06-30 19:11:00,76.0,65.0,29.79,NE,51,0.0,8.0,68,0.00,,,0.00,,2013-06-30 23:11:00,
2013-06-30 19:33:00,75.0,65.0,29.80,ENE,58,0.0,5.0,71,0.00,,,0.00,,2013-06-30 23:33:00,
2013-06-30 19:44:00,75.0,65.0,29.80,ENE,58,0.0,5.0,71,0.00,,,0.00,,2013-06-30 23:44:00,
2013-06-30 19:53:00,74.0,66.0,29.80,ENE,59,0.0,1.0,75,0.00,,,0.00,,2013-06-30 23:53:00,
2013-06-30 20:01:00,74.0,66.0,29.80,ENE,59,0.0,1.0,76,0.00,,,0.00,,2013-07-01 00:01:00,
2013-06-30 20:11:00,74.0,66.0,29.80,ENE,59,0.0,1.0,76,0.00,,,0.00,,2013-07-01 00:11:00,
2013-06-30 20:22:00,74.0,66.0,29.80,ENE,59,0.0,1.0,76,0.00,,,0.00,,2013-07-01 00:22:00,
2013-06-30 20:33:00,74.0,66.0,29.80,ENE,59,0.0,1.0,76,0.00,,,0.00,,2013-07-01 00:33:00,
2013-06-30 20:42:00,74.0,66.0,29.80,ENE,59,0.0,1.0,76,0.00,,,0.00,,2013-07-01 00:42:00,
2013-06-30 22:22:00,69.0,65.0,29.83,ENE,65,0.0,3.0,86,0.00,,,0.00,,2013-07-01 02:22:00,
2013-06-30 22:44:00,69.0,65.0,29.83,NE,55,0.0,2.0,86,0.00,,,0.00,,2013-07-01 02:44:00,
2013-06-30 22:54:00,69.0,65.0,29.84,NE,55,0.0,0.0,87,0.00,,,0.00,,2013-07-01 02:54:00,
2013-06-30 23:01:00,69.0,65.0,29.84,NE,55,0.0,0.0,87,0.00,,,0.00,,2013-07-01 03:01:00,
2013-06-30 23:11:00,69.0,65.0,29.84,NE,55,0.0,0.0,87,0.00,,,0.00,,2013-07-01 03:11:00,
2013-06-30 23:23:00,68.0,64.0,29.84,NE,55,0.0,1.0,88,0.00,,,0.00,,2013-07-01 03:23:00,
2013-06-30 23:33:00,68.0,64.0,29.84,NE,55,0.0,1.0,88,0.00,,,0.00,,2013-07-01 03:33:00,
2013-06-30 23:43:00,68.0,64.0,29.84,NE,55,0.0,1.0,88,0.00,,,0.00,,2013-07-01 03:43:00,
2013-06-30 23:52:00,68.0,65.0,29.84,NNE,20,0.0,0.0,89,0.00,,,0.00,,2013-07-01 03:52:00,